Regional Weather Roundup
Issued by NWS

Home | Current Version | Previous Version | Graphics & Text | Print | Product List | Glossary Off
Versions: 1 2 3 4 5 6 7 8 9 10 11 12 13 14 15 16 17 18 19 20 21 22 23 24 25 26 27 28 29 30 31 32 33 34 35 36 37 38 39 40 41 42 43 44 45 46 47 48 49 50

419
ASUS43 KMKX 271821
RWRWI

WISCONSIN REGIONAL WEATHER ROUNDUP
NATIONAL WEATHER SERVICE MILWAUKEE/SULLIVAN WI
100 PM CDT THU JUL 27 2017

NOTE: "FAIR" INDICATES FEW OR NO CLOUDS BELOW 12,000 FEET WITH NO
SIGNIFICANT WEATHER AND/OR OBSTRUCTIONS TO VISIBILITY.

WIZ001-002-006>008-014>016-023>028-271900-
NORTHWEST WISCONSIN

CITY           SKY/WX    TMP DP  RH WIND       PRES   REMARKS
SUPERIOR ARPT  NOT AVBL
ASHLAND        SUNNY     78  61  55 N9        30.09F HX  80
6HR MIN TEMP:  59; 6HR MAX TEMP:  78;

HAYWARD        MOSUNNY   79  57  46 NE15      30.09F HX  80
6HR MIN TEMP:  58; 6HR MAX TEMP:  80;

SIREN          MOSUNNY   80  56  44 N5        30.10S HX  80
6HR MIN TEMP:  59; 6HR MAX TEMP:  80;

CUMBERLAND     MOSUNNY   77  55  47 N5        30.09F
RICE LAKE      PTSUNNY   79  57  47 N5        30.09S HX  80
6HR MIN TEMP:  60; 6HR MAX TEMP:  80;

CHETEK         MOSUNNY   80  59  48 CALM      30.08S HX  81
6HR MIN TEMP:  63; 6HR MAX TEMP:  80;

LADYSMITH      MOSUNNY   78  59  52 NE5       30.09F
6HR MIN TEMP:  61; 6HR MAX TEMP:  80;

EAU CLAIRE     SUNNY     82  59  45 VRB5      30.05S HX  82
6HR MIN TEMP:  64; 6HR MAX TEMP:  82;

MENOMONIE      SUNNY     81  58  45 N3        30.06F HX  81
6HR MIN TEMP:  64; 6HR MAX TEMP:  81;

NEW RICHMOND   MOSUNNY   80  59  47 N6        30.08F HX  81
6HR MIN TEMP:  63; 6HR MAX TEMP:  80;

OSCEOLA        PTSUNNY   80  58  46 NW5       30.11S HX  81
6HR MIN TEMP:  61; 6HR MAX TEMP:  81;

$$

WIZ003>005-009-010-017-018-271900-
NORTH CENTRAL WISCONSIN

CITY           SKY/WX    TMP DP  RH WIND       PRES   REMARKS
MANITOWISH WTR PTSUNNY   75  57  52 SE3       30.09F
6HR MIN TEMP:  58; 6HR MAX TEMP:  78;

ARBOR VITAE    SUNNY     80  58  47 N9        30.08F HX  80
6HR MIN TEMP:  60; 6HR MAX TEMP:  80;

WOODRUFF       SUNNY     80  58  47 N9        30.08F HX  80
6HR MIN TEMP:  60; 6HR MAX TEMP:  80;

RHINELANDER    MOSUNNY   77  57  50 CALM      30.09F
6HR MIN TEMP:  61; 6HR MAX TEMP:  79;

EAGLE RIVER    PTSUNNY   76  54  46 CALM      30.09S
6HR MIN TEMP:  59; 6HR MAX TEMP:  77;

LAND O LAKES   CLOUDY    75  55  49 N7        30.11S
6HR MIN TEMP:  56; 6HR MAX TEMP:  79;

PHILLIPS       MOSUNNY   78  58  51 N7        30.08F
6HR MIN TEMP:  57; 6HR MAX TEMP:  78;

TOMAHAWK         N/A     75  56  51 N5        30.08F
6HR MIN TEMP:  55; 6HR MAX TEMP:  78;

MEDFORD        PTSUNNY   78  58  51 N8        30.07F
6HR MIN TEMP:  59; 6HR MAX TEMP:  79;

MERRILL        PTSUNNY   81  59  47 E6        30.07F HX  81
$$

WIZ029-030-035-036-043>047-271900-
CENTRAL WISCONSIN

CITY           SKY/WX    TMP DP  RH WIND       PRES   REMARKS
WAUSAU         PTSUNNY   79  59  50 E6        30.04F HX  80
6HR MIN TEMP:  62; 6HR MAX TEMP:  81;

MOSINEE        MOSUNNY   75  61  60 E7        30.07S
MARSHFIELD     MOSUNNY   77  59  53 E5        30.05F
6HR MIN TEMP:  66; 6HR MAX TEMP:  81;

STEVENS POINT  PTSUNNY   77  58  53 NE7       30.06S
6HR MIN TEMP:  60; 6HR MAX TEMP:  79;

WAUPACA        MOSUNNY   83  60  45 N6        30.04S HX  83
6HR MIN TEMP:  64; 6HR MAX TEMP:  83;

WAUTOMA        PTSUNNY   81  61  50 VRB7      30.03F HX  82
6HR MIN TEMP:  66; 6HR MAX TEMP:  82;

WISC RAPIDS    MOSUNNY   83  61  47 N9        30.04F HX  83
6HR MIN TEMP:  65; 6HR MAX TEMP:  83;

CAMP DOUGLAS   MOSUNNY   81  61  50 NE10      30.03F HX  81
$$

WIZ011>013-019>022-031-037>040-048>050-271900-
NORTHEAST WISCONSIN

CITY           SKY/WX    TMP DP  RH WIND       PRES   REMARKS
ANTIGO         MOSUNNY   76  59  54 N5        30.08F
6HR MIN TEMP:  58; 6HR MAX TEMP:  77;

SHAWANO        MOSUNNY   82  60  47 E8        30.04F HX  82
6HR MIN TEMP:  66; 6HR MAX TEMP:  82;

OCONTO         SUNNY     78  60  52 E8        30.04S
6HR MIN TEMP:  63; 6HR MAX TEMP:  78;

STURGEON BAY     N/A     74  64  71 N13       30.05R
6HR MIN TEMP:  68; 6HR MAX TEMP:  75;

GREEN BAY      SUNNY     79  62  56 NE12      30.03S HX  80
6HR MIN TEMP:  67; 6HR MAX TEMP:  79;

MANITOWOC      SUNNY     76  60  57 NE9       30.03S
6HR MIN TEMP:  67; 6HR MAX TEMP:  76;

APPLETON       MOSUNNY   77  54  44 NE12G18   30.03R
CLINTONVILLE   MOSUNNY  N/A N/A N/A NE8       30.04F
OSHKOSH        SUNNY     79  63  57 NE10      30.02S HX  80
6HR MIN TEMP:  70; 6HR MAX TEMP:  79;

$$

WIZ032>034-041-042-053>061-271900-
SOUTHWEST WISCONSIN

CITY           SKY/WX    TMP DP  RH WIND       PRES   REMARKS
LA CROSSE      SUNNY     85  63  47 N9        30.02F HX  86
6HR MIN TEMP:  69; 6HR MAX TEMP:  85;

SPARTA         SUNNY     80  58  45 N7        30.04F HX  81
6HR MIN TEMP:  57; 6HR MAX TEMP:  82;

VIROQUA        SUNNY     79  62  55 NE7       30.05F HX  80
6HR MIN TEMP:  65; 6HR MAX TEMP:  79;

BOSCOBEL       SUNNY     83  60  45 VRB7      30.01F HX  83
6HR MIN TEMP:  67; 6HR MAX TEMP:  84;

PRAIRIE DU CHI SUNNY     81  58  45 N7        30.01S HX  81
6HR MIN TEMP:  69; 6HR MAX TEMP:  81;

PLATTEVILLE    SUNNY     81  64  55 NE10      30.01F HX  82
6HR MIN TEMP:  69; 6HR MAX TEMP:  81;

$$

WIZ056-057-062-063-064-067-068-271900-
SOUTH CENTRAL WISCONSIN

CITY           SKY/WX    TMP DP  RH WIND       PRES   REMARKS
REEDSBURG      MOSUNNY   80  61  52 NE9       30.02F HX  81
6HR MIN TEMP:  65; 6HR MAX TEMP:  80;

BARABOO/DELLS  SUNNY     80  58  46 NE10      30.03F HX  80
6HR MIN TEMP:  65; 6HR MAX TEMP:  80;

LONE ROCK      MOSUNNY   82  63  52 N13       30.01F HX  83
6HR MIN TEMP:  67; 6HR MAX TEMP:  82;

MINERAL POINT  SUNNY     81  63  54 NE10      30.02F HX  82
MADISON        MOSUNNY   80  62  54 NE13G20   30.00S HX  81
6HR MIN TEMP:  69; 6HR MAX TEMP:  81;

MIDDLETON      SUNNY     81  61  50 E6        30.02S HX  82
6HR MIN TEMP:  69; 6HR MAX TEMP:  81;

WATERTOWN      SUNNY     79  64  60 NE9       30.00F HX  81
6HR MIN TEMP:  68; 6HR MAX TEMP:  79; 6HR PCP:  0.01;

MONROE         MOSUNNY   79  64  61 NE9       30.00S HX  81
JANESVILLE     MOSUNNY   82  63  51 E14       29.98S HX  83
$$

WIZ051-052-058>065-066-070>072-271900-
SOUTHEAST WISCONSIN

CITY           SKY/WX    TMP DP  RH WIND       PRES   REMARKS
MILWAUKEE      MOSUNNY   75  63  66 N18G25    29.99S
6HR MIN TEMP:  71; 6HR MAX TEMP:  76;

WAUKESHA       SUNNY     77  57  50 NE8G20    30.01F
MILWAUKEE/TIMM SUNNY     75  55  50 NE10G17   30.01S
RACINE         SUNNY     75  66  73 N18G25    30.00S
6HR MIN TEMP:  70; 6HR MAX TEMP:  76;

KENOSHA        SUNNY     79  61  53 NE15G23   29.98F HX  80
6HR MIN TEMP:  72; 6HR MAX TEMP:  79;

FOND DU LAC    SUNNY     80  60  50 NE14      30.02S HX  81
6HR MIN TEMP:  70; 6HR MAX TEMP:  80;

SHEBOYGAN      SUNNY     78  64  61 NE14      30.02S HX  80
6HR MIN TEMP:  67; 6HR MAX TEMP:  78;

WEST BEND      SUNNY     77  61  57 NE14G20   30.01S
JUNEAU         SUNNY     78  62  56 N12       30.02F HX  80
6HR MIN TEMP:  67; 6HR MAX TEMP:  78;

$$

LSZ147-162-271900-
LAKE SUPERIOR

STATION/POSITION TIME  TEMP    WIND        PRES    WAVE
                       AIR SEA DIR/SP/G            HT/PER
                 (UTC) (F)     (DEG/KT/KT) (MB)    (FT/S)
W MID LAKE BUOY  1750   55 53   10/  8/  8 1019.5R   0
DEVILS ISLAND    1800   61      40/  5/  6 1019.5S
PORT WING        1702   69      20/ 11/ 12 1019.3
SAXON HARBOR     1740   68      30/  7/  8 1018.6S
$$

LMZ867-665-643>646-271900-
LAKE MICHIGAN

STATION/POSITION TIME  TEMP    WIND        PRES    WAVE
                       AIR SEA DIR/SP/G            HT/PER
                 (UTC) (F)     (DEG/KT/KT) (MB)    (FT/S)
CHAMBERS ISLAND  1740   71      30/  8/  9 1016.6F
S GREEN BAY BUOY 1730   70 72   40/ 12/ 14 1017.2R
N MID LAKE BUOY  1750   66 67   50/  4/  6 1017.4R   1/ 3
NORTHPORT PIER   1740   71      50/  3/



USA.gov is the U.S. government's official web portal to all federal, state and local government web resources and services.